Skip Page Navigation
NASA JPL Caltech
NASA Logo - Jet Propulsion Laboratory + View the NASA Portal
+ Center for Near-Earth Object Studies
JPL Home Earth Solar System Stars & Galaxies Technology
JPL Solar System Dynamics
BODIES ORBITS EPHEMERIDES TOOLS PHYSICAL DATA DISCOVERY FAQ SITE MAP
JPL Small-Body Database Browser
Search: [ help ]  
70107 (1999 KS11)
Classification: Main-belt Asteroid          SPK-ID: 2070107
Ephemeris | Orbit Diagram | Orbital Elements | Mission Design | Physical Parameters | Discovery Circumstances | Close-Approach Data ]

[ show orbit diagram ]
Orbital Elements at Epoch 2459000.5 (2020-May-31.0) TDB
Reference: JPL 19 (heliocentric ecliptic J2000)
 Element Value Uncertainty (1-sigma)   Units 
e .1328707081595338 3.9514e-08  
a 2.294571648444763 9.6987e-09 au
q 1.989690288593118 9.172e-08 au
i 4.688136132136674 4.6472e-06 deg
node 56.1481066412109 6.3411e-05 deg
peri 189.4116808157684 6.7878e-05 deg
M 15.22679406380527 2.6589e-05 deg
tp 2458946.802157717490
(2020-Apr-07.30215772)
9.3671e-05 TDB
period 1269.553074711559
3.48
8.0492e-06
2.204e-08
d
yr
n .2835643559697507 1.7979e-09 deg/d
Q 2.599453008296407 1.0987e-08 au
  Orbit Determination Parameters
   # obs. used (total)      765  
   data-arc span      7677 days (21.02 yr)  
   first obs. used      1999-05-18  
   last obs. used      2020-05-24  
   planetary ephem.      DE431  
   SB-pert. ephem.      SB431-N16  
   condition code      0  
   norm. resid. RMS      .5524  
   source      ORB  
   producer      Otto Matic  
   solution date      2020-Nov-12 22:02:05  

Additional Information
 Earth MOID = .976534 au 
 Jupiter MOID = 2.41455 au 
 T_jup = 3.580 
[ hide covariance matrix ]
Orbital Elements at Epoch 2456740.5 (2014-Mar-24.0) TDB
Reference: JPL 19 (heliocentric ecliptic J2000)
 Element Value Uncertainty (1-sigma)   Units 
e .1331516912600466 3.9427e-08  
q 1.988518425739799 9.1562e-08 au
tp 2456408.108557365665
(2013-Apr-25.60855737)
8.9929e-05 TDB
node 56.19272410838821 6.3412e-05 deg
peri 189.3246291065696 6.7862e-05 deg
i 4.68862770417568 4.6467e-06 deg
  Orbit Determination Parameters
   # obs. used (total)      765  
   data-arc span      7677 days (21.02 yr)  
   first obs. used      1999-05-18  
   last obs. used      2020-05-24  
   planetary ephem.      DE431  
   SB-pert. ephem.      SB431-N16  
   condition code      0  
   norm. resid. RMS      .5524  
   source      ORB  
   producer      Otto Matic  
   solution date      2020-Nov-12 22:02:05  

Additional Information
 Jupiter MOID = 2.41455 au 
 T_jup = 3.580 
Orbit Covariance (6×6)
  e q tp node peri i
e 1.554492353546343E-15 -3.594560171667482E-15 -1.125055161559931E-12 9.650372610998151E-15 -3.14353851603452E-13 2.431628776859013E-16
q -3.594560171667482E-15 8.383578228547681E-15 2.678413297298899E-12 -2.276252610927773E-14 7.504881186522637E-13 -5.34450029782473E-16
tp -1.125055161559931E-12 2.678413297298899E-12 8.087254665793661E-9 -4.329706260869454E-11 2.203788898944121E-9 8.743211700154769E-13
node 9.650372610998151E-15 -2.276252610927773E-14 -4.329706260869454E-11 4.021045331650273E-9 -4.01878791118016E-9 -8.970547813369696E-11
peri -3.14353851603452E-13 7.504881186522637E-13 2.203788898944121E-9 -4.01878791118016E-9 4.6052243629891E-9 8.965179942808508E-11
i 2.431628776859013E-16 -5.34450029782473E-16 8.743211700154769E-13 -8.970547813369696E-11 8.965179942808508E-11 2.159228500313829E-11

Ephemeris | Orbit Diagram | Orbital Elements | Mission Design | Physical Parameters | Discovery Circumstances | Close-Approach Data ]

Physical Parameter Table
Parameter Symbol Value Units Sigma Reference Notes
absolute magnitude H 15.81   n/a E2021B10  

70107 (1999 KS11)          Discovered 1999-May-18 by LINEAR at Socorro
Reference: 20031109/Numbers.arcLast Updated: 2004-04-19

[ show close-approach data ]
Alternate Designations
 1999 KS11 = 2000 VY6 
Ephemeris | Orbit Diagram | Orbital Elements | Mission Design | Physical Parameters | Discovery Circumstances | Close-Approach Data ]
ABOUT SSD CREDITS/AWARDS PRIVACY/COPYRIGHT GLOSSARY LINKS
FirstGov 2021-Feb-28 21:13 UT
(server date/time)  
NASA Home Page
Site Manager:   Ryan S. Park
Webmaster  Alan B. Chamberlin